DH0GMA Weather Reports


Display with metric or nautical units.
time (UTC)temp
F
wind
direction
speed
MPH
gust
MPH
rain 1hr
in
rain 24hr
in
rain mn
in
humidity
%
barometer
mb
20260905044747 64 74 1.0 7.0 0.00 0.00 0.00 80 1018.6
20260905043747 64 64 4.0 10.0 0.00 0.00 0.00 79 1018.4
20260905042747 65 8 1.0 5.0 0.00 0.00 0.00 80 1018.8
20260905041746 65 22 0.0 4.0 0.00 0.00 0.00 82 1018.5
20260905040746 65 17 0.0 3.0 0.00 0.00 0.00 81 1018.3
20260905035746 66 39 1.0 4.0 0.00 0.00 0.00 81 1018.2
20260905034746 66 7 0.0 3.0 0.00 0.00 0.00 80 1018.0
20260905033746 66 347 1.0 4.0 0.00 0.00 0.00 80 1017.9
20260905032746 66 343 0.0 4.0 0.00 0.00 0.00 80 1017.7
20260905031745 66 195 0.0 0.0 0.00 0.00 0.00 79 1017.5
20260905030745 66 195 0.0 0.0 0.00 0.00 0.00 79 1017.4
20260905025746 66 195 0.0 0.0 0.00 0.00 0.00 78 1017.3
20260905024746 66 195 0.0 0.0 0.00 0.00 0.00 78 1017.1
20260905023746 66 195 0.0 0.0 0.00 0.00 0.00 77 1016.8
20260905022746 67 195 0.0 0.0 0.00 0.00 0.00 77 1016.6
20260905021746 67 195 0.0 0.0 0.00 0.00 0.00 77 1016.7
20260905020745 67 195 0.0 0.0 0.00 0.00 0.00 76 1016.7
20260905015745 67 195 0.0 0.0 0.00 0.00 0.00 76 1016.7
20260905014747 67 195 0.0 0.0 0.00 0.00 0.00 75 1016.6
20260905013747 68 195 0.0 1.0 0.00 0.00 0.00 74 1016.6
20260905012747 68 195 0.0 2.0 0.00 0.00 0.00 74 1016.5
20260905011746 68 195 0.0 1.0 0.00 0.00 0.00 73 1016.4
20260905010747 68 194 2.0 3.0 0.00 0.00 0.00 73 1016.2
20260905005746 69 191 1.0 3.0 0.00 0.00 0.00 73 1016.1
20260905004746 69 188 2.0 3.0 0.00 0.00 0.00 73 1016.2
20260905003746 69 176 2.0 3.0 0.00 0.00 0.00 73 1016.0
20260905002746 69 161 2.0 4.0 0.00 0.00 0.00 72 1015.9
20260905001746 69 183 1.0 3.0 0.00 0.00 0.00 72 1015.9
20260905000746 70 164 1.0 3.0 0.00 0.00 0.00 71 1015.9
20260904235746 70 158 2.0 4.0 0.00 0.00 0.00 71 1016.1
20260904234745 70 227 2.0 3.0 0.00 0.00 0.00 71 1016.1
20260904233745 70 291 0.0 0.0 0.00 0.00 0.00 71 1016.0
20260904232745 70 291 0.0 1.0 0.00 0.00 0.00 70 1016.0
20260904231747 71 291 0.0 2.0 0.00 0.00 0.00 69 1015.8
20260904230747 71 291 2.0 3.0 0.00 0.00 0.00 69 1015.7
20260904225747 71 283 0.0 2.0 0.00 0.00 0.00 68 1015.7
20260904224747 72 227 0.0 1.0 0.00 0.00 0.00 67 1015.5
20260904223746 72 221 0.0 3.0 0.00 0.00 0.00 66 1015.4
20260904222746 72 183 1.0 3.0 0.00 0.00 0.00 66 1015.1
20260904221746 73 173 1.0 3.0 0.00 0.00 0.00 66 1015.2
20260904220746 73 197 1.0 2.0 0.00 0.00 0.00 65 1015.2
20260904215746 73 205 0.0 3.0 0.00 0.00 0.00 65 1015.2
20260904214745 73 165 2.0 3.0 0.00 0.00 0.00 65 1015.1
20260904213745 72 185 2.0 3.0 0.00 0.00 0.00 65 1014.9
20260904212745 72 116 1.0 3.0 0.00 0.00 0.00 66 1015.0
20260904211747 72 142 1.0 2.0 0.00 0.00 0.00 66 1014.9
20260904210747 72 197 0.0 2.0 0.00 0.00 0.00 65 1014.9
20260904205747 73 198 1.0 2.0 0.00 0.00 0.00 64 1014.8
20260904204746 73 196 1.0 3.0 0.00 0.00 0.00 63 1014.9
20260904203746 74 199 1.0 2.0 0.00 0.00 0.00 61 1015.0
20260904202746 74 196 1.0 3.0 0.00 0.00 0.00 60 1015.0
20260904201746 74 180 1.0 4.0 0.00 0.00 0.00 60 1015.0
20260904200746 75 201 2.0 4.0 0.00 0.00 0.00 59 1014.9
20260904195746 75 191 2.0 4.0 0.00 0.00 0.00 59 1014.9
20260904194745 75 196 1.0 3.0 0.00 0.00 0.00 59 1014.8
20260904193745 76 165 1.0 3.0 0.00 0.00 0.00 58 1014.9
20260904192745 76 157 1.0 2.0 0.00 0.00 0.00 56 1014.8
20260904191747 76 163 1.0 2.0 0.00 0.00 0.00 56 1014.7
20260904190747 77 163 0.0 2.0 0.00 0.00 0.00 55 1014.6
20260904185746 77 166 2.0 3.0 0.00 0.00 0.00 54 1014.5
20260904184745 78 167 2.0 4.0 0.00 0.00 0.00 53 1014.3
20260904183745 78 197 1.0 3.0 0.00 0.00 0.00 52 1014.2
20260904182745 79 215 1.0 2.0 0.00 0.00 0.00 52 1014.1
20260904181747 80 215 0.0 3.0 0.00 0.00 0.00 50 1014.0
20260904180747 80 214 0.0 2.0 0.00 0.00 0.00 50 1013.7
20260904175746 81 120 0.0 3.0 0.00 0.00 0.00 49 1013.7
20260904174746 81 283 1.0 4.0 0.00 0.00 0.00 48 1013.5
20260904173745 82 218 1.0 4.0 0.00 0.00 0.00 48 1013.3
20260904172745 82 153 0.0 3.0 0.00 0.00 0.00 47 1013.3
20260904171747 83 168 2.0 5.0 0.00 0.00 0.00 46 1013.3
20260904170746 84 157 3.0 7.0 0.00 0.00 0.00 45 1013.3
20260904165746 85 254 3.0 9.0 0.00 0.00 0.00 44 1013.4
20260904164746 85 197 3.0 8.0 0.00 0.00 0.00 44 1013.3
20260904163746 85 196 2.0 11.0 0.00 0.00 0.00 44 1013.4
20260904162746 85 191 4.0 9.0 0.00 0.00 0.00 45 1013.3
20260904161746 85 113 4.0 10.0 0.00 0.00 0.00 44 1013.3
20260904160745 86 267 6.0 11.0 0.00 0.00 0.00 43 1013.3
20260904155745 86 209 6.0 10.0 0.00 0.00 0.00 44 1013.5
20260904154745 86 151 2.0 9.0 0.00 0.00 0.00 44 1013.6
20260904153746 86 160 4.0 11.0 0.00 0.00 0.00 43 1013.7
20260904152746 87 169 6.0 10.0 0.00 0.00 0.00 43 1013.7
20260904151746 87 158 6.0 10.0 0.00 0.00 0.00 44 1013.8
20260904150745 87 197 3.0 11.0 0.00 0.00 0.00 44 1013.8
20260904145745 87 269 4.0 9.0 0.00 0.00 0.00 44 1014.0
20260904144745 87 227 4.0 10.0 0.00 0.00 0.00 43 1014.1
20260904143745 87 147 4.0 14.0 0.00 0.00 0.00 43 1014.4
20260904142745 87 181 4.0 11.0 0.00 0.00 0.00 44 1014.4
20260904141745 87 156 3.0 7.0 0.00 0.00 0.00 45 1014.3
20260904140747 86 136 2.0 9.0 0.00 0.00 0.00 45 1014.5
20260904135746 86 219 3.0 9.0 0.00 0.00 0.00 45 1014.6
20260904134745 86 216 2.0 11.0 0.00 0.00 0.00 46 1014.6
20260904133745 86 183 6.0 10.0 0.00 0.00 0.00 44 1014.9
20260904132745 85 152 6.0 10.0 0.00 0.00 0.00 45 1014.9
20260904131745 85 140 5.0 9.0 0.00 0.00 0.00 45 1015.0
20260904130746 85 145 4.0 10.0 0.00 0.00 0.00 46 1015.1
20260904125746 84 268 4.0 10.0 0.00 0.00 0.00 47 1015.2
20260904124746 84 246 4.0 9.0 0.00 0.00 0.00 47 1015.2
20260904123746 84 162 5.0 10.0 0.00 0.00 0.00 48 1015.5
20260904122745 84 154 4.0 9.0 0.00 0.00 0.00 47 1015.7
20260904121745 83 254 5.0 12.0 0.00 0.00 0.00 47 1015.7
20260904120745 83 135 4.0 8.0 0.00 0.00 0.00 49 1016.1
20260904115745 82 222 4.0 10.0 0.00 0.00 0.00 49 1016.1
20260904114745 82 131 5.0 10.0 0.00 0.00 0.00 48 1016.3
20260904113747 82 242 2.0 9.0 0.00 0.00 0.00 49 1016.4
20260904112746 82 274 4.0 8.0 0.00 0.00 0.00 50 1016.4
20260904111746 81 270 4.0 10.0 0.00 0.00 0.00 49 1016.6
20260904110746 80 181 6.0 11.0 0.00 0.00 0.00 50 1016.7
20260904105746 81 218 6.0 11.0 0.00 0.00 0.00 49 1016.9
20260904104746 80 113 2.0 9.0 0.00 0.00 0.00 53 1017.0
20260904103746 80 200 3.0 10.0 0.00 0.00 0.00 54 1017.1
20260904102745 80 252 3.0 9.0 0.00 0.00 0.00 54 1017.3
20260904101745 79 197 4.0 9.0 0.00 0.00 0.00 55 1017.4
20260904100745 78 227 4.0 10.0 0.00 0.00 0.00 55 1017.7
20260904095745 78 243 4.0 9.0 0.00 0.00 0.00 56 1017.9
20260904094745 78 173 4.0 9.0 0.00 0.00 0.00 56 1017.8
20260904093745 78 186 4.0 8.0 0.00 0.00 0.00 56 1018.0
20260904092747 78 263 4.0 11.0 0.00 0.00 0.00 57 1018.2
20260904091746 77 156 2.0 6.0 0.00 0.00 0.00 57 1018.3
20260904090746 76 153 4.0 8.0 0.00 0.00 0.00 59 1018.4
20260904085746 75 213 4.0 7.0 0.00 0.00 0.00 60 1018.6
20260904084746 75 219 3.0 8.0 0.00 0.00 0.00 60 1018.6
20260904083746 75 216 3.0 5.0 0.00 0.00 0.00 60 1018.7
20260904082746 74 250 2.0 7.0 0.00 0.00 0.00 63 1018.8
20260904081745 73 237 2.0 6.0 0.00 0.00 0.00 64 1018.7
20260904080746 72 146 3.0 6.0 0.00 0.00 0.00 65 1018.9
20260904075746 71 247 2.0 5.0 0.00 0.00 0.00 67 1018.9
20260904074746 71 168 3.0 4.0 0.00 0.00 0.00 68 1019.1
20260904073746 69 175 1.0 5.0 0.00 0.00 0.00 71 1019.3
20260904072746 69 166 1.0 5.0 0.00 0.00 0.00 71 1019.3
20260904071746 68 160 2.0 4.0 0.00 0.00 0.00 73 1019.3
20260904070746 67 147 1.0 6.0 0.00 0.00 0.00 75 1019.4
20260904065746 66 183 1.0 4.0 0.00 0.00 0.00 77 1019.4
20260904064745 65 174 3.0 4.0 0.00 0.00 0.00 78 1019.6
20260904063745 64 247 0.0 2.0 0.00 0.00 0.00 80 1019.7
20260904062746 63 174 2.0 3.0 0.00 0.00 0.00 81 1019.7
20260904061746 62 157 0.0 3.0 0.00 0.00 0.00 81 1019.6
20260904060746 62 151 0.0 3.0 0.00 0.00 0.00 83 1019.6
20260904055746 61 168 2.0 4.0 0.00 0.00 0.00 84 1019.5
20260904054746 60 194 0.0 2.0 0.00 0.00 0.00 85 1019.5
20260904053745 60 194 0.0 1.0 0.00 0.00 0.00 85 1019.5
20260904052745 60 194 0.0 0.0 0.00 0.00 0.00 85 1019.6
20260904051745 60 194 0.0 0.0 0.00 0.00 0.00 85 1019.7
20260904050745 60 193 0.0 0.0 0.00 0.00 0.00 84 1019.8
20260904045745 60 193 0.0 2.0 0.00 0.00 0.00 84 1019.8